DELTA 1 DEB, 28979

Orbit data source: Space-Track

DELTA 1 DEB, 28979 is space debris in LEO originally from a launch on Thu, 29 Jul 1976 UTC launched from the Air Force Western Test Range (AFWTR). Debris objects in space refer to the collection of defunct objects orbiting the Earth. Examples of debris include non-operational satellites, rocket bodies, and fragments generated from explosions, collisions, or faulty payload assembly.

Loading next visibility...
Identifier
28979, 1976-077FU
Orbit
LEO
Country
Flag of USUS
Related business
Manufacturer
Unknown
Mission
Spacecraft
Bus & Motor
Unknown
Mass
Unknown
Launch date (UTC)
1976-07-29 (50 years ago)
Launch vehicle
Unknown
Launch site
Air Force Western Test Range (AFWTR)
Object type
Payload
Rocket body
Debris
Shape & HBR
Unknown shape, 1.1 m
Radar Cross Section
Small (<0.1 m²)

Expand to show TLE details & history
Last TLE update: 3 days ago

TLE from 3 days ago
0 DELTA 1 DEB
1 28979U 76077FU  26060.83759436 -.00000026  00000-0  25318-5 0  9994
2 28979 102.0171 207.9550 0798589  99.4592 269.7477 10.95192258871696
Epoch: 2026-03-01T20:06Z
TLE epoch observation values (Epoch: 2026-03-01T20:06:08.152Z)
Latitude
0.00001°
Longitude
106.78141°
Altitude
2,246.899 km
Speed
6.776 km/s
True Right ascension
13h 51m 49s
True Declination
0° 00' 00"
Sunlit
Object was in full shadow at epoch
Visualization orbit readout
Latitude
Unknown
Longitude
Unknown
Altitude
Unknown
Speed
Unknown
Apparent Right ascension
Unknown
Apparent Declination
Unknown
Sunlit
N/A
Visualization observer readout
Local Sidereal Time
12:55:15
Azimuth
Unknown
Elevation
Unknown
Doppler factor
Unknown
Orbital elements
Apogee altitude
2,868.725 km
Perigee altitude
1,501.057 km
Semi-major axis
8,563.028 km
Eccentricity
0.07986
Inclination
102.0171°
RAAN
207.955°
Arg. of periapsis
99.4592°
True anomaly
260.63916°
Mean anomaly
269.7477°
Eccentric anomaly
265.18825°
Mean motion
2.73906 °/min
Orbital period
131.43 mins
BSTAR
0.0000025318
Loading maneuver chart data...
Computing Atmospheric mass density...
Loading historical data...
Loading historical data...
Loading historical data...
Loading historical data...
Loading historical data...
Loading historical data...
Loading historical data...

Documentation

Showing up to 5 results
|